Location: Pinon Hills
(34.4429°N, 117.6403°W)
Time: 08:52:06
(UTC-07:00)

Daily predictions for brighter satellites

Satellite Brightness Start Highest point End
(mag) Time Altitude Azimuth Time Altitude Azimuth Time Altitude Azimuth
Cosmos 1980 Rocket 2.3 20:26:57 10° NNW 20:32:39 90° W 20:38:20 10° SSE
Meteor 1-24 Rocket 3.9 20:31:18 10° S 20:36:59 79° W 20:42:30 10° N
Cosmos 1697 Rocket 3.8 20:34:02 10° NW 20:39:23 45° WSW 20:44:41 10° S
Cosmos 1408 Rocket 3.7 20:35:34 10° S 20:39:59 79° W 20:44:24 10° N
Cosmos 540 Rocket 3.5 20:37:48 10° NNW 20:42:59 78° ENE 20:48:08 10° SSE
FENGYUN 3A 3.8 20:37:36 10° SSE 20:43:01 84° WSW 20:48:28 10° NNW
Cosmos 1553 Rocket 4.5 20:38:57 10° N 20:45:03 45° E 20:51:03 10° SSE
Cosmos 1674 4.3 20:45:01 10° SE 20:47:36 18° E 20:50:14 10° NE
USA 229 DEB 3.8 20:41:36 10° S 20:48:17 56° ESE 20:55:04 10° NE
USA 229 3.8 20:41:43 10° S 20:48:23 55° ESE 20:55:09 10° NE
YAOGAN 11 4.1 20:44:13 10° SSE 20:48:29 71° ENE 20:52:48 10° N
Cosmos 332 Rocket 3.8 20:43:53 10° NNW 20:48:43 69° ENE 20:53:33 10° SSE
DELTA 2 R/B(2) 2.7 20:50:42 10° WSW 20:52:17 80° NNW 20:54:07 10° ENE
Cosmos 1437 Rocket 4.2 20:50:48 10° NNE 20:53:43 21° ENE 20:56:07 12° ESE
GPS 2-04 Rocket1 2.9 20:50:17 10° W 20:54:40 72° SSW 20:58:33 12° ESE
H-2A R/B 3.5 20:52:05 10° S 20:55:51 53° W 20:59:37 10° NNW
Cosmos 968 Rocket 3.5 20:52:03 10° SSW 20:57:12 85° ESE 21:02:26 10° NNE
Cosmos 1151 Rocket 4.5 20:56:43 10° NNE 20:59:59 21° ENE 21:02:24 14° ESE
CZ-4 DEB 4.0 21:03:45 10° S 21:06:48 41° W 21:09:52 10° NNW
Meteor 1-21 Rocket 4.1 21:03:11 10° S 21:08:43 72° E 21:14:13 10° NNE
H-2A R/B 2.2 21:08:11 12° SSE 21:12:21 70° ENE 21:16:53 10° N
Envisat 3.2 21:10:49 14° SSE 21:15:07 58° ENE 21:20:07 10° N
Cosmos 2058 4.4 21:19:09 18° ESE 21:20:00 19° E 21:22:54 10° NE
Cosmos 2292 4.1 21:17:09 10° N 21:20:09 77° E 21:22:21 19° S
Cosmos 1328 Rocket 3.6 21:16:07 10° N 21:20:35 89° WSW 21:24:36 13° S
DELTA 2 R/B (1) 4.3 21:15:29 10° WNW 21:20:54 52° N 21:26:18 10° E
Meteor 2-20 4.4 21:15:28 10° S 21:21:35 72° E 21:27:41 10° NNE
YAOGAN 6 4.0 21:20:33 19° ESE 21:21:51 24° ENE 21:24:49 10° NNE
ERS-1 Rocket 3.3 21:19:31 10° S 21:24:29 64° WSW 21:29:30 10° NNW
Cosmos 371 Rocket 3.4 21:20:24 10° NNW 21:25:13 76° WSW 21:29:05 16° S
Cosmos 2228 Rocket 3.7 21:21:43 10° NNW 21:26:07 57° W 21:30:31 10° S
Cosmos 1437 3.6 21:25:22 28° ESE 21:26:09 32° E 21:29:08 10° NNE
SPOT 5 2.9 21:25:09 21° SSE 21:28:01 58° ENE 21:32:37 10° N
ALOS 4.4 21:24:56 10° SSW 21:28:38 23° W 21:32:21 10° NW
Cosmos 405 3.7 21:25:15 10° N 21:28:39 38° E 21:29:54 28° ESE
S3M 4.1 21:24:28 10° N 21:30:34 74° W 21:36:40 10° S
Cosmos 1777 Rocket 4.1 21:26:08 10° SSW 21:31:23 78° WNW 21:36:40 10° NNE
CZ-2C R/B 2.2 21:33:24 17° WSW 21:33:47 18° W 21:35:04 10° NW
Cosmos 1500 Rocket 4.1 21:32:38 10° SSW 21:36:54 57° W 21:41:14 10° N
MetOp-A 4.2 21:36:13 23° SSE 21:39:30 63° ENE 21:44:47 10° N
ARGOS 4.0 21:37:20 23° ESE 21:39:51 35° ENE 21:44:44 10° N
H-2A R/B 3.7 21:41:19 16° E 21:43:11 19° ENE 21:46:52 10° NNE
PSLV R/B 3.0 21:42:34 44° SSE 21:43:27 85° ENE 21:46:32 10° N
Cosmos 2219 3.3 21:43:34 13° S 21:48:35 57° ESE 21:54:13 10° NNE
ATLAS CENTAUR R/B 3.2 21:47:19 10° NW 21:50:57 26° WSW 21:53:26 15° SSW
Delta 2 Rocket 2.6 21:50:49 10° WSW 21:54:18 87° S 21:55:06 50° E
SPOT 1/Viking Rocket 3.7 21:52:44 32° SE 21:54:56 59° ENE 22:00:00 10° N
NOSS 3-1 (C) 3.4 21:50:47 10° SSW 21:56:20 54° ESE 22:02:23 10° NE
Cosmos 1726 3.7 21:54:24 10° NNE 21:57:09 22° ENE 21:57:09 22° ENE
Cosmos 2322 3.8 21:54:50 10° NNW 22:00:32 66° ENE 22:02:51 36° SE
FALCON 9 R/B 4.3 21:25:24 10° WSW 22:01:29 86° S 22:09:20 10° E
Cosmos 2237 Rocket 4.5 22:01:31 10° NE 22:02:35 10° NE 22:03:39 10° ENE
USA 245 3.1 22:03:51 46° NNE 22:03:51 46° NNE 22:05:49 10° N
Cosmos 1680 Rocket 3.5 21:58:09 10° N 22:03:23 66° ENE 22:05:13 40° SE
Cosmos 883 Rocket 4.5 21:58:31 10° N 22:04:44 80° W 22:08:28 25° S
Cosmos 2322 Rocket 3.5 22:01:12 10° NW 22:06:12 34° WSW 22:10:01 16° SSW
Cosmos 1908 4.1 22:02:38 10° NNW 22:06:23 47° W 22:08:02 28° SSW
Cosmos 923 Rocket 3.9 22:01:29 10° NNW 22:06:42 86° WSW 22:08:44 38° SSE
CZ-3A R/B 3.8 21:40:44 10° WSW 22:07:25 44° SSW 22:09:37 34° SSE
Cosmos 304 Rocket 3.7 22:05:16 10° NNW 22:10:07 81° ENE 22:11:25 48° SSE
Cosmos 2150 Rocket 4.3 22:11:46 43° SE 22:12:59 51° ESE 22:18:15 10° NNE
Cosmos 1898 Rocket 3.6 22:13:30 46° SE 22:14:15 50° ESE 22:19:16 10° NNE
Landsat 7 4.3 22:13:55 40° E 22:14:41 44° ENE 22:19:11 10° N
NOAA 11 4.1 22:13:06 42° SSE 22:14:58 73° ENE 22:20:24 10° N
CZ-4B R/B 3.9 22:10:11 10° N 22:15:25 64° WNW 22:19:28 16° SSW
SL-16 R/B 3.6 22:10:40 10° NW 22:15:34 31° WSW 22:19:09 16° SSW
Cosmos 2360 Rocket 2.1 22:11:36 10° NNW 22:17:17 86° WSW 22:19:14 43° SSE
Meteor 1-11 4.2 22:15:56 34° S 22:18:33 80° E 22:24:18 10° N
Cosmos 1633 Rocket 3.1 22:19:20 57° ESE 22:19:29 58° E 22:23:47 10° NNE
Sich 1 3.0 22:19:29 61° ESE 22:19:47 63° E 22:24:10 10° NNE
DMSP B5D2-2 4.4 22:18:12 10° NNE 22:23:11 44° E 22:23:22 44° ESE
Cosmos 2315 Rocket 4.0 22:18:12 10° N 22:24:24 79° W 22:27:09 35° S
Cosmos 2151 4.5 22:23:19 16° SW 22:26:03 33° W 22:29:54 10° NNW
Terra 2.3 22:30:16 44° E 22:30:32 44° ENE 22:35:03 10° N
Cosmos 1626 4.4 22:34:25 16° NE 22:34:25 16° NE 22:35:29 10° NE
Cosmos 1805 Rocket 4.2 22:31:18 36° SW 22:32:49 53° W 22:37:11 10° N
Meteor 1-4 Rocket 3.8 22:30:18 10° N 22:32:55 33° NE 22:32:55 33° NE
Cosmos 1300 2.8 22:31:41 10° N 22:35:15 72° NW 22:35:15 72° NW
Cosmos 2227 Rocket 3.0 22:39:32 34° E 22:39:32 34° E 22:43:45 10° NE
CZ-4C R/B 3.8 22:43:31 50° NNW 22:43:31 50° NNW 22:46:11 10° NNW
OAO 2 Rocket 4.4 22:40:36 10° WSW 22:43:37 33° SW 22:43:37 33° SW
USA 32 3.9 22:41:17 10° N 22:46:33 80° E 22:47:01 72° SE
Cosmos 2333 Rocket 3.4 22:43:21 10° N 22:48:20 29° ENE 22:49:11 28° ENE
Spot 2 4.3 22:44:45 10° NNE 22:49:48 72° E 22:49:48 72° E
SL-16 R/B 4.4 22:51:34 10° NNE 22:53:54 12° NE 22:55:32 11° ENE
Cosmos 1707 Rocket 4.2 22:50:38 10° NNW 22:54:47 45° W 22:54:58 45° W
Nadezhda 1 Rocket 4.0 22:50:28 10° N 22:56:29 61° E 22:57:05 58° ESE
Cosmos 1455 4.0 22:55:00 10° N 22:56:59 25° NNE 22:56:59 25° NNE
NOSS 3-1 (A) 3.6 22:54:37 21° SW 22:58:38 66° WNW 23:05:00 10° NNE
COSMOS 2428 2.6 22:54:23 10° NNW 23:00:04 80° WSW 23:00:36 72° SSW
Cosmos 1745 Rocket 4.0 23:01:49 56° SSW 23:03:16 80° W 23:09:30 10° N
Cosmos 2297 Rocket 3.0 23:07:31 37° ENE 23:07:31 37° ENE 23:11:30 10° NE
DELTA 2 R/B (1) 3.4 23:02:02 10° WNW 23:07:27 82° WSW 23:07:27 82° WSW
Cosmos 1470 Rocket 4.1 23:09:03 55° N 23:09:03 55° N 23:12:30 10° N
Cosmos 1933 Rocket 4.0 23:10:27 59° N 23:10:27 59° N 23:14:08 10° N
Cosmos 1709 Rocket 4.3 23:12:07 49° E 23:12:07 49° E 23:17:46 10° NNE
Cosmos 1937 Rocket 4.0 23:16:58 50° WSW 23:17:43 55° WNW 23:22:51 10° N
Cosmos 2219 Rocket 2.2 23:14:40 10° NNW 23:20:07 73° NE 23:20:07 73° NE
ATLAS 2AS CENTAUR R/B 2.8 23:20:01 63° SSE 23:20:59 70° ESE 23:28:54 10° NE
H-2A R/B 2.7 23:21:57 47° WSW 23:22:09 47° W 23:27:21 10° NNW
COSMOS 2455 4.4 23:19:11 10° N 23:23:56 24° NE 23:25:14 22° ENE
Cosmos 990 Rocket 4.4 23:33:28 55° WNW 23:33:28 55° WNW 23:38:28 10° N
Cosmos 1980 3.8 23:28:26 10° NNW 23:33:40 66° NE 23:33:40 66° NE
Cosmos 2181 Rocket 4.3 23:29:27 10° N 23:35:40 56° E 23:35:40 56° E
NOSS 0 Rocket 3.9 23:39:27 10° NNW 23:45:22 78° WNW 23:45:22 78° WNW
Cosmos 2082 4.1 23:45:28 57° W 23:45:47 58° WNW 23:51:26 10° NNE
Cosmos 2237 Rocket 2.3 23:41:47 10° NNW 23:46:53 71° N 23:46:53 71° N
ATLAS 3B R/B 3.6 23:41:34 10° NNW 23:47:55 36° NE 23:49:26 32° ENE
